Regional Weather Roundup
Issued by NWS Charleston, SC

Home | Current Version | Previous Version | Text Only | Print | Product List | Glossary On
Versions: 1 2 3 4 5 6 7 8 9 10 11 12 13 14 15 16 17 18 19 20 21 22 23 24 25 26 27 28 29 30 31 32 33 34 35 36 37 38 39 40 41 42 43 44 45 46 47 48 49 50
000
ASUS42 KCHS 162327
RWRCHS

Regional Weather Roundup
National Weather Service Charleston SC
600 PM EST SAT DEC 16 2017

NOTE: "fair" indicates few or no clouds below 12,000 feet with no
significant weather and/or obstructions to visibility.

Not all stations are quality controlled. Use data with caution,
especially dewpoint observations.

SCZ027-030-031-034>040-042>050-170000-
...Southeast South Carolina...

CITY           SKY/WX    TMP DP  RH WIND       PRES   REMARKS
N Charleston   PTCLDY    43  35  73 S6        30.27R
Waterfront Prk   N/A     49  40  70 SE5       30.12S
Mount Pleasant FAIR      43  37  81 CALM      30.28R
Johns Island   FAIR      45  39  81 CALM      30.28R
Pinopolis        N/A     46  37  71 CALM      30.18S
Moncks Corner  FAIR      39  34  81 CALM      30.27R
Summerville    FAIR      43  34  70 CALM      30.27R
Beaufort MCAS  CLEAR     48  42  80 E3        30.27R
Beaufort Arpt  FAIR      43  39  87 CALM      30.27R
Hilton Head Is CLEAR     43  39  87 CALM      30.27F
Walterboro     CLEAR     41  34  75 CALM      30.28R
Allendale      FAIR      43  32  65 CALM      30.26R

...Southern Midlands and Pee Dee...

CITY           SKY/WX    TMP DP  RH WIND       PRES   REMARKS
Georgetown     FAIR      37  36  93 CALM      30.29R
Kingstree      FAIR      41  32  70 CALM      30.27R
Orangeburg     CLEAR     44  31  60 CALM      30.26R
Barnwell         N/A     43  34  70 CALM      30.26S
Aiken          FAIR      37  28  70 SW3       30.29R
Manning        FAIR      37  10  32 MISG      30.27R
Columbia       CLOUDY    50  30  46 CALM      30.25R
Sumter         PTCLDY    43  29  56 CALM      30.23R
Florence       CLOUDY    44  29  55 CALM      30.26R
Myrtle Beach   CLEAR     44  33  65 CALM      30.28R
N Myrtle Beach PTCLDY    44  34  67 SW5       30.27R

$$

GAZ063-065-086>088-099>101-113>116-118-119-134>141-150-170000-
...Southeast Georgia...

CITY           SKY/WX    TMP DP  RH WIND       PRES   REMARKS
Savannah Arpt  NOT AVBL
Hunter AAF       N/A     47  36  67 SE5         N/A
Fort Stewart     N/A     46  38  73 CALM        N/A
Statesboro     CLEAR     41  33  73 CALM      30.27R
Sylvania       CLEAR     45  37  76 CALM      30.27S
Claxton        FAIR      44  39  84 CALM      30.27R

...CSRA, Central and far Southeast Georgia...

CITY           SKY/WX    TMP DP  RH WIND       PRES   REMARKS
Thomson        CLEAR     40  30  67 CALM      30.31R
Augusta-Bush   CLEAR     43  31  62 CALM      30.25S
Augusta-Daniel CLEAR     48  28  46 CALM      30.26R
Swainsboro     FAIR      41  36  81 CALM      30.27R
Vidalia        CLEAR     46  36  66 CALM      30.27R
Eastman        FAIR      46  28  50 CALM      30.29R
Hazlehurst     FAIR      47  27  46 CALM      30.26R
Alma           CLEAR     46  37  71 CALM      30.26R
Waycross       CLEAR     49  35  59 CALM      30.27R
Jesup          NOT AVBL
Baxley         FAIR      45  37  76 CALM      30.27R
Brunswick      CLEAR     50  39  66 CALM      30.28R
Saint Simons   CLEAR     50  40  68 CALM      30.26S

$$

SCZ027-028-034-036>038-045-046-048>050-GAZ119-141-170000-
...Lake and Supplemental Coastal Observations...

STATION/POSITION TIME  TEMP    WIND        PRES    WAVE   SWELL
                       AIR SEA DIR/SP/G            HT/PER HT/PER/DIR
                 (UTC) (F)     (DEG/KT/KT) (MB)    (FT/S) (FT/S/D)
Winyah Bay       2245   45     260/  1     1025.0S
Lake Murray      2230   49      CALM  /  1 1023.4R
ACE Basin NERRS  2245   44        CALM     1025.0S
Fort Pulaski     2300   47 53  130/  4/  5 1025.2
Sapelo Island    2300   45      90/  3     1025.0

$$

ANZ835-935-AMZ111-154-330-350-352-354-370-450-454-472-170000-
...C-MAN and Buoy Observations...

STATION/POSITION TIME  TEMP    WIND        PRES    WAVE   SWELL
                       AIR SEA DIR/SP/G            HT/PER HT/PER/DIR
                 (UTC) (F)     (DEG/KT/KT) (MB)    (FT/S) (FT/S/D)
Buoy 41004       2300   56 73   70/  2/  8 1024.2
Buoy 41008       2250   51 58   60/  6/  6 1024.7R   1/11   2/120/11
Folly Beach CMAN 2300   49      80/  4/  5 1025.5R
Capers Nearshore 2308   46 55  100/  4/  8 1024.7R


STATION/POSITION TIME  TEMP    WIND        PRES    WAVE   SWELL
                       AIR SEA DIR/SP/G            HT/PER HT/PER/DIR
                 (UTC) (F)     (DEG/KT/KT) (MB)    (FT/S) (FT/S/D)
5E St. Marys GA  2300      62                N/A     2/10
Frying Pan Buoy  2300   52 68  260/  6/ 12 1024.6
Buoy 41025       2310   49 73  290/ 12/ 17 1024.2
Cape Lookout NC  2300          270/  7/  9 1024.7R
Buoy 41002       2250   62 74  360/  6/ 10 1023.4R   6/ 7   5/320/ 7
Buoy 41010       NOT AVBL
St Augustine FL  2300   56 63   10/ 11/ 12 1024.8R


$$



USA.gov is the U.S. government's official web portal to all federal, state and local government web resources and services.